Weather History for Millington, TN

Change the Weather History Date:

Tuesday, April 1, 2014

  Actual Average Record
Temperature  
Mean Temperature 68 °F -  
Max Temperature 78 °F 67 °F 87 °F (2012)
Min Temperature 57 °F 48 °F 35 °F (2004)
Cooling Degree Days 2    
Growing Degree Days 18 (Base 50)    
Moisture  
Dew Point 53 °F    
Average Humidity 59    
Maximum Humidity 82    
Minimum Humidity 46    
Precipitation  
Precipitation 0.00 in - - ()
Sea Level Pressure  
Sea Level Pressure 30.03 in    
Wind  
Wind Speed 3 mph (SSW)    
Max Wind Speed 12 mph    
Max Gust Speed -    
Visibility 10 miles    
Events      
Averages and records for this station are not official NWS values.
T = Trace of Precipitation, MM = Missing Value Source: NWS Daily Summary

Daily Weather History Graph

Daily Weather History Graph

Search for Another Location

Airport:

Trip Planner

Search our weather history database for the weather conditions in past years. The results will help you decide how hot, cold, wet, or windy it might be!

Date:

Astronomy

Apr. 01, 2014 Rise Set
Actual Time 6:46 AM CDT 7:21 PM CDT
Civil Twilight 6:20 AM CDT 7:46 PM CDT
Nautical Twilight 5:50 AM CDT 8:16 PM CDT
Astronomical Twilight 5:19 AM CDT 8:47 PM CDT
Moon 7:53 AM CDT (4/1) 9:38 PM CDT (4/1)
Length of Visible Light 13h 26m
Length of Day
12h 34m
Waxing Crescent, 5% of the Moon is Illuminated
Apr 1
Waxing Crescent
Apr 7
First Quarter
Apr 15
Full
Apr 22
Last Quarter
Apr 29
New

Hourly Weather History & Observations

Time (CDT) Temp. Dew Point Humidity Pressure Visibility Wind Dir Wind Speed Gust Speed Precip Events Conditions
12:50 AM 66.2 °F 44.6 °F 46% 30.01 in 10.0 mi Calm Calm - N/A   Mostly Cloudy
1:50 AM 66.2 °F 46.4 °F 49% 30.01 in 10.0 mi Calm Calm - N/A   Overcast
2:15 AM 64.4 °F 46.4 °F 52% 30.01 in 10.0 mi Calm Calm - N/A   Overcast
2:35 AM 64.4 °F 46.4 °F 52% 30.01 in 10.0 mi Calm Calm - N/A   Overcast
2:55 AM 62.6 °F 46.4 °F 55% 30.01 in 10.0 mi South 3.5 mph - N/A   Scattered Clouds
3:15 AM 62.6 °F 46.4 °F 55% 30.01 in 10.0 mi Calm Calm - N/A   Clear
3:35 AM 60.8 °F 46.4 °F 59% 30.01 in 10.0 mi Calm Calm - N/A   Clear
3:55 AM 60.8 °F 46.4 °F 59% 30.02 in 10.0 mi South 4.6 mph - N/A   Clear
4:15 AM 60.8 °F 46.4 °F 59% 30.02 in 10.0 mi South 3.5 mph - N/A   Clear
4:35 AM 62.6 °F 46.4 °F 55% 30.02 in 10.0 mi Calm Calm - N/A   Clear
4:55 AM 62.6 °F 46.4 °F 55% 30.03 in 10.0 mi Calm Calm - N/A   Clear
5:30 AM 62.6 °F 46.4 °F 55% 30.03 in 10.0 mi Calm Calm - N/A   Clear
5:50 AM 57.2 °F 46.4 °F 67% 30.04 in 10.0 mi SSE 3.5 mph - N/A   Partly Cloudy
6:50 AM 60.8 °F 48.2 °F 63% 30.06 in 10.0 mi South 3.5 mph - N/A   Mostly Cloudy
7:50 AM 62.6 °F 51.8 °F 68% 30.07 in 10.0 mi SSE 3.5 mph - N/A   Scattered Clouds
8:50 AM 66.2 °F 53.6 °F 64% 30.08 in 10.0 mi SSW 5.8 mph - N/A   Scattered Clouds
9:50 AM 71.6 °F 57.2 °F 60% 30.08 in 10.0 mi SSW 11.5 mph - N/A   Partly Cloudy
10:50 AM 73.4 °F 60.8 °F 65% 30.08 in 10.0 mi WSW 8.1 mph - N/A   Partly Cloudy
11:50 AM 75.2 °F 60.8 °F 61% 30.08 in 10.0 mi SW 5.8 mph - N/A   Scattered Clouds
12:50 PM 77.0 °F 60.8 °F 57% 30.07 in 10.0 mi SSW 6.9 mph - N/A   Scattered Clouds
1:50 PM 78.8 °F 60.8 °F 54% 30.06 in 10.0 mi SW 9.2 mph - N/A   Scattered Clouds
2:50 PM 78.8 °F 60.8 °F 54% 30.02 in 10.0 mi SSW 11.5 mph - N/A   Scattered Clouds
3:50 PM 78.8 °F 57.2 °F 47% 30.00 in 10.0 mi SSW 11.5 mph - N/A   Scattered Clouds
4:50 PM 78.8 °F 59.0 °F 51% 29.99 in 10.0 mi SSW 11.5 mph - N/A   Partly Cloudy
5:50 PM 78.8 °F 57.2 °F 47% 29.99 in 10.0 mi SSW 9.2 mph - N/A   Partly Cloudy
6:50 PM 75.2 °F 59.0 °F 57% 30.00 in 10.0 mi SSW 6.9 mph - N/A   Scattered Clouds
7:50 PM 71.6 °F 57.2 °F 60% 30.01 in 10.0 mi SSW 3.5 mph - N/A   Scattered Clouds
8:50 PM 69.8 °F 57.2 °F 64% 30.01 in 10.0 mi Calm Calm - N/A   Scattered Clouds
9:50 PM 66.2 °F 57.2 °F 73% 30.01 in 10.0 mi Calm Calm - N/A   Scattered Clouds
10:50 PM 62.6 °F 57.2 °F 82% 30.00 in 10.0 mi East 4.6 mph - N/A   Scattered Clouds
11:50 PM 62.6 °F 57.2 °F 82% 29.99 in 10.0 mi ESE 3.5 mph - N/A   Partly Cloudy